Simultaneous Nadir Overpasses (SNOs) Predictions

Prediction of SNOs between LANDSAT-8 and NOAA-19 Satellite Orbit:

Table of predicted SNOs for the next 14.0 days since TLE Epoch: 2/12/2022
Index Date (LANDSAT-8) Time (LANDSAT-8) Lat,Lon (LANDSAT-8) SZA (LANDSAT-8 ) Date (NOAA-19) Time (NOAA-19) Lat,Lon (NOAA-19) SZA (NOAA-19 ) Distance(km) Time Diff (sec)
1 02/13/2022 22:34:06 -80.70, 55.64 84.97 02/13/2022 22:33:28 -80.70, 55.53 84.99 1.97 38
2 02/13/2022 23:23:33 80.68,-136.97 94.98 02/13/2022 23:24:33 80.69,-137.02 95.01 1.96 60
3 02/16/2022 04:07:49 80.69, 152.10 94.26 02/16/2022 04:06:36 80.71, 152.14 94.25 2.00 73
4 02/16/2022 04:57:16 -80.69, -40.30 85.77 02/16/2022 04:57:30 -80.70, -40.37 85.76 1.82 14
5 02/18/2022 10:30:58 80.70, 56.41 93.48 02/18/2022 10:30:37 80.70, 56.52 93.49 2.15 21
6 02/18/2022 11:20:25 -80.70,-135.98 86.54 02/18/2022 11:21:31 -80.69,-135.93 86.52 1.35 66
7 02/20/2022 16:04:41 -80.70, 153.00 87.31 02/20/2022 16:03:35 -80.71, 152.88 87.33 2.52 66
8 02/20/2022 16:54:07 80.70, -39.34 92.69 02/20/2022 16:54:39 80.70, -39.50 92.68 2.84 32
9 02/22/2022 22:27:50 -80.70, 57.22 88.12 02/22/2022 22:27:36 -80.70, 57.28 88.12 1.04 14
10 02/25/2022 04:01:31 80.70, 153.71 91.06 02/25/2022 04:00:42 80.71, 153.80 91.06 2.37 49



Historial Predications of SNOs between LANDSAT-8 and NOAA-19
